www.pogodaiklimat.ru

Погода и климат >> Архив погоды >> Россия >> Кировская область >> Даровское


ПОГОДА в Даровском

  • Прогноз погоды в Даровском
  • Монитор погоды в Даровском

АРХИВ ПОГОДЫ в Даровском

Время (UTC), дата Ветер
(напр.,м/с)
 
Видим.   Явления Облачность Т
(С)
Тd
(С)
f
(%)
Тe
(С)
Тes
(С)
Комфортность P
(гПа)
Po
(гПа)
Тmin
(С)
Tmax
(С)
R
(мм)
R24
(мм)
S
(см)
21 11.02 Ю 2-4
{5}
н/о н/о -5.7 -6.8 92 -10 -10 1021.0 1002.0
00 12.02 Ю 2-5
{5}
н/о н/о -6.0 -6.8 94 -10 -10 1020.9 1001.9
03 12.02 ЮВ 2-4
{5}
20 км 10/5 600 м
[Cb calv As op]
-6.3 -7.5 91 -11 -11 1020.9 1001.9 -6.3 0.2 73
06 12.02 Ю 2-5
{6}
20 км 10/4 600 м
[Cb calv As op]
-5.6 -6.7 92 -10 -10 1020.2 1001.2
09 12.02 Ю 3-6
{6}
20 км 10/6 600 м
[Cb calv As op]
-4.3 -5.9 89 -10 -10 1019.4 1000.6
12 12.02 ЮВ 3-7
{8}
20 км позёмок 10/8 600 м
[Cb calv As op]
-3.6 -6.1 83 -9 -9 1019.1 1000.3
15 12.02 Ю 2-4
{7}
20 км {метель} 10/10 600 м
[Cb calv]
-3.8 -5.6 87 -8 -8 1019.1 1000.3 -3.6
18 12.02 Ю 2-6
{9}
н/о н/о -3.6 -5.2 89 -8 -8 1018.8 999.9
21 12.02 Ю 3-7
{7}
н/о н/о -4.1 -6.3 85 -9 -9 1018.5 999.6
00 13.02 Ю 3-5
{7}
н/о н/о -3.7 -5.0 91 -9 -9 1017.5 998.7
03 13.02 Ю 3-7
{7}
10 км слаб. снег 10/10 300 м
[Frnb Ns]
-3.6 -5.0 90 -9 -9 1016.6 997.8 -4.1 1 73
06 13.02 Ю 3-6
{9}
20 км {снег, метель} 10/8 600 м
[Sc Ac As]
-4.5 -7.6 79 -10 -10 1016.7 997.9 -4.5
09 13.02 ЮВ 3-5
{8}
20 км в посл. час ливневой снег {метель} 10/8 600 м
[Cb calv As op]
-4.2 -7.2 80 -9 -9 1015.7 996.9
12 13.02 ЮВ 3-7
{7}
20 км позёмок 10/5 600 м
[Sc Ac As]
-3.9 -10.1 62 -9 -9 1012.7 993.9
15 13.02 ЮВ 3-8
{10}
4000 м слаб. снег {метель} 10/0
[As op]
-5.8 -8.4 82 -11 -11 1010.2 991.4 -3.5 0.5
18 13.02 Ю 2-6
{9}
н/о н/о -6.2 -8.7 82 -11 -11 1008.8 989.9
21 13.02 Ю 3-6
{8}
н/о н/о -5.3 -7.3 86 -11 -11 1008.7 989.9
00 14.02 Ю 2-4
{6}
н/о н/о -3.9 -4.9 93 -8 -8 1009.0 990.4
03 14.02 Ю 2-4
{5}
20 км 10/8 600 м
[Cb calv As op]
-3.9 -6.1 85 -8 -8 1010.8 992.1 -6.3 2 75
06 14.02 ЮЗ 1-3
{5}
20 км 10/6 600 м
[Cb calv Ac As]
-3.9 -5.8 87 -6 -6 1012.8 994.0
09 14.02 СЗ 3-6
{7}
20 км позёмок 10/4 600 м
[Sc Ac As]
-4.3 -8.1 75 -10 -9 1015.2 996.4
12 14.02 З 4-7
{7}
20 км позёмок 10/5 600 м
[Cb calv Ac As]
-5.2 -9.3 73 -11 -11 1017.0 998.2
15 14.02 З 2-4
{7}
20 км {метель} 10/0
[Ac As]
-6.4 -9.6 78 -11 -11 1018.4 999.4 -3.7
18 14.02 З 2-3
{5}
н/о н/о -6.8 -9.6 80 -11 -11 1019.1 1000.0
21 14.02 З 2-3
{3}
н/о н/о -7.2 -9.8 82 -12 -12 1018.8 999.7
00 15.02 Ю 2-3
{5}
н/о н/о -7.8 -9.9 85 -12 -12 1017.3 998.2
03 15.02 Ю 2-4
{4}
20 км 10/10 600 м
[Cb calv]
-8.6 -10.5 86 -13 -13 1014.1 995.1 -8.7 0.3 75
06 15.02 Ю 3-5
{6}
4000 м слаб. ливневой снег 10/8 600 м
[Cb calv As op]
-7.8 -9.2 90 -14 -14 1008.2 989.3
09 15.02 ЮВ 3-6
{7}
4000 м слаб. ливневой снег {метель} 10/10 600 м
[Cb calv]
-6.5 -7.7 91 -12 -12 1003.0 984.3
12 15.02 Ю 2-4
{6}
10 км слаб. ливневой снег {метель} 10/6 600 м
[Cb calv Ac As]
-5.2 -6.6 90 -10 -9 998.9 980.4
15 15.02 Ю 1-2
{4}
10 км слаб. ливневой снег 10/8 600 м
[Cb calv Ac As]
-5.5 -6.6 92 -8 -8 997.3 978.7 -5.2 5
18 15.02 Ю 1-1
{3}
н/о н/о -4.6 -5.4 94 -7 -7 996.2 977.7
21 15.02 Ю 1-1
{2}
н/о н/о -3.9 -4.6 95 -6 -6 995.8 977.4
00 16.02 З 2-4
{4}
н/о н/о -0.8 -1.5 95 -5 -5 995.7 977.5
03 16.02 З 2-3
{4}
20 км 10/10 600 м
[Cb calv]
-0.4 -1.3 94 -4 -4 995.4 977.3 -5.5 0.5 75
06 16.02 З 3-7
{7}
20 км в посл. час ливневой снег 10/8 600 м
[Cb calv As op]
0.0 -0.8 94 -5 -5 996.5 978.3
09 16.02 СЗ 4-8
{10}
20 км 9/9 600 м
[Cb calv]
0.0 -3.6 77 -5 -5 999.7 981.5
12 16.02 СЗ 3-6
{9}
20 км в посл. час ливневой снег 9/8 600 м
[Cb calv Ac trans]
-0.7 -3.8 80 -5 -5 1002.2 983.9
15 16.02 СЗ 3-5
{8}
20 км {ливн. осадки, метель} 9/9 600 м
[Cb calv]
-2.0 -5.5 77 -7 -7 1004.2 985.8 +0.6 2
18 16.02 З 1-3
{6}
н/о н/о -3.5 -6.6 79 -6 -6 1004.5 985.9
21 16.02 Ю 1-1
{4}
н/о н/о -5.8 -7.6 87 -8 -8 1003.1 984.4
00 17.02 ЮВ 2-3
{5}
н/о н/о -5.0 -7.4 83 -9 -9 998.5 980.0
03 17.02 Ю 3-6
{7}
20 км позёмок 10/8 600 м
[Sc As op]
-3.7 -6.6 80 -9 -9 993.1 974.7 -6.0 73
06 17.02 Ю 3-6
{8}
20 км позёмок 10/6 600 м
[Cb calv Ac As]
-3.6 -5.0 90 -9 -9 988.7 970.4
09 17.02 Ю 2-4
{7}
10 км слаб. снег {метель} 10/4 300 м
[Frnb As op]
-3.0 -4.0 93 -7 -7 985.2 967.1
12 17.02 Ю 2-3
{6}
2300 м ливневой снег [диам. гололёда 0 мм] 10/10 600 м
[Cb calv]
-2.1 -3.0 94 -6 -6 982.8 964.7
15 17.02 ЮЗ 1-3
{5}
20 км {ливн. осадки} [диам. гололёда 0 мм] 10/10 600 м
[Cb calv]
-1.6 -2.4 94 -4 -4 983.0 964.9 -1.3 3
18 17.02 ЮЗ 1-2
{4}
н/о н/о -1.6 -2.3 95 -4 -4 982.8 964.8
21 17.02 З 2-3
{4}
н/о н/о -1.9 -2.8 94 -6 -6 983.4 965.3
00 18.02 З 2-4
{6}
н/о н/о -1.7 -2.8 92 -6 -6 985.6 967.5
03 18.02 СЗ 7-13
{14}
1000 м ливневой снег [диам. гололёда 0 мм] 10/10 600 м
[Cb calv]
-3.0 -5.0 86 -11 -11 988.9 970.8 -3.0 2 74
06 18.02 СЗ 6-11
{14}
10 км метель {ливн. осадки} [диам. гололёда 0 мм] 10/6 600 м
[Cb calv Ac As]
-4.7 -8.7 74 -12 -12 994.2 975.8 -4.7
09 18.02 СЗ 7-18
{18}
4000 м сильная метель [диам. гололёда 0 мм] 8/8 600 м
[Cb calv]
-6.5 -12.0 65 -15 -15 999.5 980.9
12 18.02 СЗ 6-12
{18}
10 км сильная метель [диам. гололёда 0 мм] 10/10 600 м
[Cb calv]
-7.4 -12.3 68 -15 -15 1004.0 985.2
15 18.02 СЗ 5-10
{16}
20 км метель [диам. гололёда 0 мм] 10/8 600 м
[Cb calv As trans]
-9.0 -15.7 58 -16 -16 1008.8 989.9 -2.9 3
18 18.02 СЗ 5-10
{17}
н/о н/о -9.6 -16.9 55 -17 -17 1012.0 992.9

 

Местоположение метеостанции Даровское (Кировская область, Россия): широта 58.77 долгота 47.97 высота над уровнем моря 147 м.

В архиве по умолчанию представлена погода в Даровском за последнюю неделю. Архивные данные за месяц целиком и за предыдущие месяцы, начиная с января 2011 года, Вы можете получить, выбрав интересующий диапазон дат из раскрывающегося списка и нажав кнопку "Ввод!".


*Определитесь, кто Вы:
робот инопланетянин человек

Внимание! Время в таблицах - всемирное. Для получения местного времени необходимо прибавить поправку, которая равна 3 ч.

Смотрите также архив погоды в соседних городах и на ближайших метеорологических станциях:

Погода в Котельниче (Кировская область, Россия) (57 км)
Погода в Вохме (Костромская область, Россия) (71 км)
Погода в Шабалино (Кировская область, Россия) (72 км)
Погода в Кирове (Кировская область, Россия) (98 км)
Погода в Опарино (Кировская область, Россия) (121 км)
Погода в Пыщуге (Костромская область, Россия) (131 км)
Погода в Кумене (Кировская область, Россия) (136 км)
Погода в Шахунье (Нижегородская область, Россия) (146 км)
Погода в Шарье (Костромская область, Россия) (148 км)
Погода в Яранске (Кировская область, Россия) (156 км)

Пояснения к столбцам:

Ветер - указаны скорость ветра в м/с - средняя за 10 мин, порывы в срок и между сроками (в фигурных скобках) и направление, откуда дует ветер: С - северный, СВ - северо-восточный, В - восточный, ЮВ - юго-восточный, Ю - южный, ЮЗ - юго-западный, З - западный, СЗ - северо-западный.
Видимость - горизонтальная дальность видимости в метрах или километрах. При видимости от 1 до 10 км при отсутствии осадков обычно наблюдается дымка, при ухудшении видимости до 1 км и менее - туман. В сухую погоду видимость может ухудшаться дымом, пылью или мглою.
Явления - указаны атмосферные явления, наблюдавшиеся в срок или в последний час перед сроком; фигурными скобками обозначены явления, наблюдавшиеся между сроками (за 1-3 часа до срока); квадратными скобками обозначены град или гололедные отложения с указанием их диаметра в мм.
Облачность - указаны через наклонную черту общая и нижняя облачность в баллах и высота нижней границы облаков в метрах; квадратными скобками обозначены формы облаков: Ci - перистые, Cs - перисто-слоистые, Cc - перисто-кучевые, Ac - высококучевые, As - высокослоистые, Sc - слоисто-кучевые, Ns - слоисто-дождевые, Cu - кучевые, Cb - кучево-дождевые. Подробнее классификацию облаков см. в Атласе облаков (PDF).
T - Температура воздуха - температура, измеренная на высоте 2 м над землей.
Td - Температура точки росы - температура, при понижении до которой содержащийся в воздухе водяной пар достигнет насыщения.
f - Относительная влажность воздуха - влажноcть воздуха, измеренная на высоте 2 м над землей.
Te - Эффективная температура - температура, которую ощущает одетый по сезону человек в тени. Характеристика душности погоды. При расчете учитывается влияние влажности воздуха и скорости ветра на теплоощущения человека.
Tes - Эффективная температура на солнце - температура, которую ощущает человек, с поправкой на солнечный нагрев. Характеристика знойности погоды. Зависит от высоты солнца над горизонтом, облачности и скорости ветра. Ночью, в пасмурную погоду, а также при ветре 12 м/с и более поправка равна нулю.
P - Атмосферное давление - приведенное к уровню моря атмосферное давление.
Po - Атмосферное давление - измеренное на уровне метеостанции атмосферное давление.
Tmin - Минимальная температура - минимум температуры воздуха на высоте 2 м над землей.
Tmax - Максимальная температура - максимум температуры воздуха на высоте 2 м над землей.
R - Количество осадков - Количество выпавших осадков за период времени, мм. При наведении курсора мыши на число - период времени, за который выпало указанное количество осадков.
R24 - Количество осадков - Количество выпавших осадков за 24 часа, мм.
S - Снежный покров - Высота снежного покрова, см. При наведении курсора мыши на число - состояние снежного покрова и степень покрытия местности в баллах.